Flag for France Weather past 2 weeks in Amsterdam Island, French Southern Territories, France

Now
65 °F

Mild.


Feels Like: 65 °F
Forecast: 57 / 60 °F
Wind: 15 mph from South

Location: Martin De Vivies Ile Amsterdam

Current Time: Jan 31, 2015 at 2:29:56 PM

Latest Report: Jan 31, 2015 at 1:00 PM


Visibility: N/A

Pressure: 29.97 "Hg

Humidity: 49%

Dew point: 45 °F

Location of Amsterdam IslandLocation

Historic Weather in Amsterdam Island — Graph

°F

Amsterdam Island temperature yesterday

Maximum temperature yesterday: 75 °F (at 12:00 PM)
Minimum temperature yesterday: 63 °F (at 12:00 AM)
Average temperature yesterday: 68 °F

Past Weeks' High & Low Weather Summary

 TemperatureHumidityPressure
High75 °F (Jan 30, 12:00 PM)95% (Jan 23, 3:00 PM)30.36 "Hg (Jan 23, 3:00 PM)
Low48 °F (Jan 18, 3:00 AM)43% (Jan 18, 2:00 PM)29.83 "Hg (Jan 23, 2:00 PM)
Average63 °F72%30.02 "Hg
* Reported Jan 16 1:00 PM — Jan 31 1:00 PM, Amsterdam Island, Weather by CustomWeather, © 2014

Note: Actual official high and low records may vary slightly from our data, if they occured in-between our weather recording intervals... More about our weather records

Advertising

Amsterdam Island weather history for previous 24 hours

 ConditionsComfort  
Time TempWeatherWind HumidityBarometerVisibility
1:00 PM
Jan 31
65 °FMild.15 mph49%29.97 "HgN/A
12:00 PM65 °FMild.18 mph49%29.97 "HgN/A
11:00 AM64 °FMild.18 mph52%29.98 "HgN/A
10:00 AM65 °FMild.18 mph54%29.98 "HgN/A
9:00 AM63 °FMild.21 mph62%29.98 "HgN/A
8:00 AM61 °FCool.16 mph71%29.98 "HgN/A
7:00 AM59 °FCool.16 mph79%29.97 "HgN/A
6:00 AM60 °FCool.6 mph76%29.96 "HgN/A
5:00 AM60 °FCool.6 mph75%29.94 "HgN/A
12:00 AM64 °FMild.5 mph90%29.91 "HgN/A
11:00 PM
Jan 30
64 °FMild.12 mph90%29.92 "HgN/A
10:00 PM66 °FMild.16 mph91%29.92 "HgN/A
9:00 PM66 °FMild.18 mph91%29.93 "HgN/A
8:00 PM66 °FMild.15 mph90%29.92 "HgN/A
7:00 PM66 °FMild.14 mph89%29.91 "HgN/A
6:00 PM67 °FMild.14 mph85%29.90 "HgN/A
5:00 PM69 °FMild.14 mph81%29.90 "HgN/A
4:00 PM70 °FMild.13 mph79%29.90 "HgN/A
3:00 PM72 °FMild.14 mph75%29.90 "HgN/A
2:00 PM74 °FMild.15 mph71%29.91 "HgN/A
Weather by CustomWeather, © 2014

See weather overviewHow to use our weather pages